Tracking 29892 objects as of 21-Nov-2024
HD Live streaming from Space Station
objects crossing your sky now

STARLINK-1366

Track STARLINK-1366 now!
10-day predictions
STARLINK-1366 is classified as:


NORAD ID: 45569
Int'l Code: 2020-025AQ
Perigee: 553.5 km
Apogee: 555.1 km
Inclination: 53.1 °
Period: 95.6 minutes
Semi major axis: 6925 km
RCS: Unknown
Launch date: April 22, 2020
Source: United States (US)
Launch site: AIR FORCE EASTERN TEST RANGE (AFETR)
Your satellite tracking list
Your tracking list is empty




NASA's NSSDC Master Catalog

Two Line Element Set (TLE):
1 45569U 20025AQ  24325.24900159  .00006619  00000-0  46257-3 0  9993
2 45569  53.0539  56.4648 0001138  80.2165 279.8953 15.06418757253854
Source of the keplerian elements: AFSPC